Weather Roundup
Issued by NWS

Home | Current Version | Previous Version | Graphics & Text | Print | Product List | Glossary Off
Versions: 1 2 3 4 5 6 7 8 9 10 11 12 13 14 15 16 17 18 19 20 21 22 23 24 25 26 27 28 29 30 31 32 33 34 35 36 37 38 39 40 41 42 43 44 45 46 47 48 49 50

000
NZUS93 KARX 222359
HRRWXR

CURRENT HOURLY OBSERVATIONS ACROSS
MUCH OF THE UPPER MISSISSIPPI VALLEY
NATIONAL WEATHER SERVICE LA CROSSE WI
700 PM CDT THU JUN 22 2017


...SOUTHEAST MINNESOTA...


CITY           SKY/WX    TMP DP  RH WIND       PRES   REMARKS
ROCHESTER      CLOUDY    70  68  93 N8        29.73R
ROCHESTER/MAYO NOT AVBL
WINONA         CLOUDY    70  68  94 N6        29.70F
AUSTIN         CLOUDY    72  66  83 CALM      29.71S
ALBERT LEA     NOT AVBL
DODGE CENTER   CLOUDY    66  64  94 N6        29.73R
PRESTON        CLOUDY    70  66  86 CALM      29.72R
OWATONNA       CLOUDY    70  64  83 N13       29.73S
FARIBAULT      CLOUDY    66  64  94 N3        29.74S
$$

...ELSEWHERE IN MINNESOTA...


CITY           SKY/WX    TMP DP  RH WIND       PRES   REMARKS
MINNEAPOLIS    PTSUNNY   72  63  73 NW7       29.73F
INTNL FALLS    MOSUNNY   72  41  32 W18G29    29.60F
DULUTH         MOSUNNY   73  51  46 W16       29.67S
RED WING       CLOUDY    70  64  83 N5        29.72R
REDWOOD FALLS  PTSUNNY   68  56  65 N7        29.76S
MANKATO        CLOUDY    68  61  78 N13       29.75R
WORTHINGTON    CLOUDY    69  61  75 N13       29.78S
FAIRMONT       CLOUDY    68  63  84 N10       29.74R
$$

...SOUTHWEST WISCONSIN...


CITY           SKY/WX    TMP DP  RH WIND       PRES   REMARKS
LA CROSSE      LGT RAIN  70  68  93 NE5       29.68F
PRAIRIE DU CHI CLOUDY    75  70  83 NE6       29.68F
BOSCOBEL       NOT AVBL
LONE ROCK      NOT AVBL
PLATTEVILLE    CLOUDY    82  72  72 W6        29.71S
FORT MC COY    LGT RAIN  65  65  97 CALM      29.72R
CAMP DOUGLAS   LGT RAIN  66  66 100 S7        29.70F FOG
MAUSTON-NEW LI RAIN      68  67  96 CALM      29.73R
VIROQUA        CLOUDY    67  67 100 NE5       29.73F
WIS DELLS      CLOUDY    70  66  87 CALM      29.73F
$$

...ELSEWHERE IN WISCONSIN...


CITY           SKY/WX    TMP DP  RH WIND       PRES   REMARKS
MILWAUKEE      PTSUNNY   74  66  76 E7        29.71F
MADISON        NOT AVBL
GREEN BAY      RAIN      70  69  97 SW7       29.70F FOG
EAU CLAIRE     NOT AVBL
BLACK RVR FLS  CLOUDY    69  69 100 CALM      29.71S
MEDFORD        CLOUDY    65  63  91 SW3       29.74S
WAUSAU         CLOUDY    66  65  96 W6        29.72R
WIS RAPIDS     CLOUDY    68  67  96 CALM      29.72F
MARSHFIELD     CLOUDY    67  64  90 W6        29.72R
RICE LAKE      MOSUNNY   69  61  75 W8        29.75S
$$

...NORTHEAST IOWA...


CITY           SKY/WX    TMP DP  RH WIND       PRES   REMARKS
WATERLOO       PTSUNNY   84  73  69 N7        29.65R HX  90
DUBUQUE        PTSUNNY   81  71  71 S5        29.70S
DECORAH        PTSUNNY   72  70  94 NE6       29.69S
MASON CITY     CLOUDY    74  69  85 N5        29.70S
CHARLES CITY   MOSUNNY   77  75  94 NE7       29.69S
OELWEIN        CLOUDY    79  73  83 CALM      29.69R
$$

...ELSEWHERE IN IOWA...


CITY           SKY/WX    TMP DP  RH WIND       PRES   REMARKS
DES MOINES     MOSUNNY   87  69  54 SW10      29.65R HX  91
IOWA CITY      CLOUDY    84  71  65 S8        29.69R
FORT DODGE     CLOUDY    81  70  69 N7        29.67S
MARSHALLTOWN   NOT AVBL
CEDAR RAPIDS   CLOUDY    82  73  74 S12       29.65S
$$

...NORTHERN ILLINOIS...


CITY           SKY/WX    TMP DP  RH WIND       PRES   REMARKS
CHICAGO-OHARE  MOSUNNY   85  68  56 SW16G28   29.69F
CHICAGO-MIDWAY NOT AVBL
MOLINE         MOSUNNY   83  70  64 VRB7      29.67R
ROCKFORD       CLOUDY    84  69  60 SW10      29.72R
PEORIA         MOSUNNY   82  73  74 S12       29.72F
$$

NOTE: "FAIR" INDICATES FEW OR NO CLOUDS BELOW 12,000 FEET WITH NO
SIGNIFICANT WEATHER AND/OR OBSTRUCTIONS TO VISIBILITY. WIND
SPEEDS ARE IN MILES-PER-HOUR.




USA.gov is the U.S. government's official web portal to all federal, state and local government web resources and services.